Time,TemperatureF,DewpointF,PressureIn,WindDirection,WindDirectionDegrees,WindSpeedMPH,WindSpeedGustMPH,Humidity,HourlyPrecipIn,Conditions,Clouds,dailyrainin,SoftwareType,DateUTC
2013-03-10 00:01:00,37.0,35.0,29.66,ENE,62,0.0,4.0,93,0.00,,,0.11,,2013-03-10 00:01:00,
2013-03-10 00:11:00,37.0,35.0,29.66,ENE,62,0.0,4.0,93,0.00,,,0.11,,2013-03-10 00:11:00,
2013-03-10 00:21:00,37.0,35.0,29.66,NE,45,0.0,6.0,93,0.00,,,0.09,,2013-03-10 00:21:00,
2013-03-10 00:32:00,37.0,35.0,29.66,NE,53,3.0,8.0,93,0.00,,,0.08,,2013-03-10 00:32:00,
2013-03-10 00:42:00,37.0,35.0,29.66,NE,53,3.0,8.0,93,0.00,,,0.08,,2013-03-10 00:42:00,
2013-03-10 00:51:00,37.0,35.0,29.66,NE,41,3.0,10.0,93,0.00,,,0.07,,2013-03-10 00:51:00,
2013-03-10 01:01:00,36.0,34.0,29.66,NE,39,3.0,10.0,93,0.00,,,0.07,,2013-03-10 01:01:00,
2013-03-10 01:11:00,36.0,34.0,29.66,NE,39,3.0,10.0,93,0.00,,,0.07,,2013-03-10 01:11:00,
2013-03-10 01:21:00,36.0,34.0,29.67,NE,47,3.0,6.0,93,0.00,,,0.06,,2013-03-10 01:21:00,
2013-03-10 01:31:00,36.0,34.0,29.67,NNE,33,0.0,8.0,93,0.00,,,0.06,,2013-03-10 01:31:00,
2013-03-10 01:41:00,36.0,34.0,29.67,NNE,33,0.0,8.0,93,0.00,,,0.06,,2013-03-10 01:41:00,
2013-03-10 01:52:00,36.0,34.0,29.67,NE,35,3.0,8.0,94,0.00,,,0.06,,2013-03-10 01:52:00,
2013-03-10 02:01:00,36.0,34.0,29.66,NE,56,3.0,8.0,94,0.00,,,0.06,,2013-03-10 02:01:00,
2013-03-10 02:11:00,36.0,34.0,29.66,NE,56,3.0,8.0,94,0.00,,,0.06,,2013-03-10 02:11:00,
2013-03-10 02:22:00,36.0,34.0,29.66,NE,56,3.0,8.0,94,0.00,,,0.06,,2013-03-10 02:22:00,
2013-03-10 02:31:00,36.0,34.0,29.66,NE,40,3.0,8.0,94,0.00,,,0.06,,2013-03-10 02:31:00,
2013-03-10 02:41:00,36.0,34.0,29.66,NE,40,3.0,8.0,94,0.00,,,0.06,,2013-03-10 02:41:00,
2013-03-10 02:52:00,36.0,34.0,29.66,NE,43,3.0,10.0,94,0.00,,,0.05,,2013-03-10 02:52:00,
2013-03-10 03:01:00,36.0,34.0,29.66,NNE,31,3.0,8.0,94,0.00,,,0.03,,2013-03-10 03:01:00,
2013-03-10 03:11:00,36.0,34.0,29.66,NNE,31,3.0,8.0,94,0.00,,,0.03,,2013-03-10 03:11:00,
2013-03-10 03:21:00,36.0,34.0,29.66,NE,54,3.0,6.0,94,0.00,,,0.02,,2013-03-10 03:21:00,
2013-03-10 03:31:00,36.0,34.0,29.65,NE,47,0.0,4.0,94,0.00,,,0.02,,2013-03-10 03:31:00,
2013-03-10 03:42:00,36.0,34.0,29.65,NE,47,0.0,4.0,94,0.00,,,0.02,,2013-03-10 03:42:00,
2013-03-10 03:52:00,36.0,34.0,29.65,NE,35,0.0,8.0,94,0.00,,,0.00,,2013-03-10 03:52:00,
2013-03-10 04:01:00,36.0,34.0,29.65,NE,39,3.0,8.0,94,0.00,,,0.00,,2013-03-10 04:01:00,
2013-03-10 04:11:00,36.0,34.0,29.65,NE,39,3.0,8.0,94,0.00,,,0.00,,2013-03-10 04:11:00,
2013-03-10 04:21:00,36.0,34.0,29.66,NE,39,3.0,12.0,94,0.00,,,0.00,,2013-03-10 04:21:00,
2013-03-10 04:31:00,35.0,33.0,29.65,NE,42,0.0,6.0,94,0.00,,,0.00,,2013-03-10 04:31:00,
2013-03-10 04:41:00,35.0,33.0,29.65,NE,42,0.0,6.0,94,0.00,,,0.00,,2013-03-10 04:41:00,
2013-03-10 04:51:00,35.0,33.0,29.65,NE,34,3.0,10.0,94,0.00,,,0.00,,2013-03-10 04:51:00,
2013-03-10 05:01:00,35.0,33.0,29.65,NE,34,3.0,10.0,94,0.00,,,0.00,,2013-03-10 05:01:00,
2013-03-10 05:11:00,35.0,33.0,29.65,NE,34,3.0,10.0,94,0.00,,,0.00,,2013-03-10 05:11:00,
2013-03-10 05:21:00,35.0,33.0,29.65,NNE,33,3.0,8.0,94,0.00,,,0.00,,2013-03-10 05:21:00,
2013-03-10 05:32:00,35.0,33.0,29.65,NE,44,3.0,10.0,94,0.00,,,0.00,,2013-03-10 05:32:00,
2013-03-10 05:42:00,35.0,33.0,29.65,NNE,33,3.0,10.0,94,0.00,,,0.00,,2013-03-10 05:42:00,
2013-03-10 05:52:00,35.0,33.0,29.65,NNE,33,3.0,10.0,94,0.00,,,0.00,,2013-03-10 05:52:00,
2013-03-10 06:01:00,35.0,33.0,29.66,NE,46,3.0,10.0,94,0.00,,,0.00,,2013-03-10 06:01:00,
2013-03-10 06:11:00,35.0,33.0,29.66,NE,46,3.0,10.0,94,0.00,,,0.00,,2013-03-10 06:11:00,
2013-03-10 06:21:00,35.0,33.0,29.66,NE,41,3.0,10.0,94,0.00,,,0.00,,2013-03-10 06:21:00,
2013-03-10 06:32:00,35.0,33.0,29.66,NNE,31,3.0,10.0,94,0.00,,,0.00,,2013-03-10 06:32:00,
2013-03-10 06:41:00,35.0,33.0,29.66,NNE,31,3.0,10.0,94,0.00,,,0.00,,2013-03-10 06:41:00,
2013-03-10 06:51:00,35.0,33.0,29.66,NE,46,3.0,8.0,94,0.00,,,0.00,,2013-03-10 06:51:00,
2013-03-10 07:01:00,35.0,33.0,29.66,NE,43,3.0,8.0,94,0.00,,,0.00,,2013-03-10 07:01:00,
2013-03-10 07:11:00,35.0,33.0,29.66,NE,43,3.0,8.0,94,0.00,,,0.00,,2013-03-10 07:11:00,
2013-03-10 07:21:00,35.0,33.0,29.67,NE,34,3.0,8.0,94,0.00,,,0.00,,2013-03-10 07:21:00,
2013-03-10 07:31:00,35.0,33.0,29.67,NE,34,3.0,8.0,94,0.00,,,0.00,,2013-03-10 07:31:00,
2013-03-10 07:41:00,35.0,33.0,29.67,NE,46,3.0,10.0,93,0.00,,,0.00,,2013-03-10 07:41:00,
2013-03-10 07:52:00,35.0,33.0,29.67,NE,46,3.0,10.0,93,0.00,,,0.00,,2013-03-10 07:52:00,
2013-03-10 08:01:00,36.0,34.0,29.67,NE,51,3.0,10.0,93,0.00,,,0.00,,2013-03-10 08:01:00,
2013-03-10 08:11:00,36.0,34.0,29.67,NE,51,3.0,10.0,93,0.00,,,0.00,,2013-03-10 08:11:00,
2013-03-10 08:21:00,36.0,34.0,29.67,NE,51,3.0,10.0,93,0.00,,,0.00,,2013-03-10 08:21:00,
2013-03-10 08:31:00,36.0,34.0,29.67,ENE,69,3.0,12.0,92,0.01,,,0.01,,2013-03-10 08:31:00,
2013-03-10 08:42:00,36.0,34.0,29.67,ENE,69,3.0,12.0,92,0.01,,,0.01,,2013-03-10 08:42:00,
2013-03-10 08:51:00,36.0,34.0,29.68,ENE,59,3.0,10.0,92,0.01,,,0.01,,2013-03-10 08:51:00,
2013-03-10 09:01:00,36.0,34.0,29.68,NE,46,3.0,10.0,92,0.01,,,0.01,,2013-03-10 09:01:00,
2013-03-10 09:11:00,36.0,34.0,29.68,NE,46,3.0,10.0,92,0.01,,,0.01,,2013-03-10 09:11:00,
2013-03-10 09:21:00,36.0,34.0,29.68,NE,51,3.0,12.0,92,0.00,,,0.01,,2013-03-10 09:21:00,
2013-03-10 09:31:00,36.0,34.0,29.68,NE,51,3.0,12.0,92,0.00,,,0.01,,2013-03-10 09:31:00,
2013-03-10 09:41:00,36.0,34.0,29.68,NE,51,3.0,12.0,92,0.00,,,0.01,,2013-03-10 09:41:00,
2013-03-10 09:51:00,37.0,35.0,29.68,ENE,61,6.0,18.0,91,0.00,,,0.01,,2013-03-10 09:51:00,
2013-03-10 10:01:00,37.0,34.0,29.68,ENE,65,6.0,14.0,90,0.00,,,0.01,,2013-03-10 10:01:00,
2013-03-10 10:11:00,37.0,34.0,29.68,ENE,65,6.0,14.0,90,0.00,,,0.01,,2013-03-10 10:11:00,
2013-03-10 10:21:00,37.0,34.0,29.68,ENE,78,6.0,20.0,89,0.00,,,0.01,,2013-03-10 10:21:00,
2013-03-10 10:31:00,38.0,35.0,29.68,ENE,65,6.0,10.0,89,0.00,,,0.01,,2013-03-10 10:31:00,
2013-03-10 10:41:00,38.0,35.0,29.69,ENE,76,3.0,10.0,89,0.00,,,0.01,,2013-03-10 10:41:00,
2013-03-10 10:51:00,38.0,35.0,29.69,ENE,76,3.0,10.0,89,0.00,,,0.01,,2013-03-10 10:51:00,
2013-03-10 11:01:00,38.0,35.0,29.69,ENE,58,6.0,14.0,88,0.00,,,0.01,,2013-03-10 11:01:00,
2013-03-10 11:11:00,38.0,35.0,29.69,ENE,58,6.0,14.0,88,0.00,,,0.01,,2013-03-10 11:11:00,
2013-03-10 11:21:00,37.0,34.0,29.69,East,83,6.0,16.0,88,0.00,,,0.01,,2013-03-10 11:21:00,
2013-03-10 11:31:00,38.0,34.0,29.69,ENE,65,3.0,12.0,87,0.00,,,0.01,,2013-03-10 11:31:00,
2013-03-10 11:41:00,38.0,34.0,29.69,ENE,65,3.0,12.0,87,0.00,,,0.01,,2013-03-10 11:41:00,
2013-03-10 11:52:00,38.0,34.0,29.69,East,88,6.0,14.0,86,0.00,,,0.01,,2013-03-10 11:52:00,
2013-03-10 12:01:00,38.0,34.0,29.70,East,96,6.0,16.0,87,0.00,,,0.01,,2013-03-10 12:01:00,
2013-03-10 12:11:00,38.0,34.0,29.70,East,96,6.0,16.0,87,0.00,,,0.01,,2013-03-10 12:11:00,
2013-03-10 12:21:00,38.0,34.0,29.70,ENE,75,6.0,10.0,86,0.00,,,0.01,,2013-03-10 12:21:00,
2013-03-10 12:31:00,38.0,34.0,29.69,ENE,74,6.0,18.0,86,0.00,,,0.01,,2013-03-10 12:31:00,
2013-03-10 12:42:00,38.0,34.0,29.69,ENE,74,6.0,18.0,86,0.00,,,0.01,,2013-03-10 12:42:00,
2013-03-10 12:51:00,38.0,34.0,29.69,East,91,6.0,16.0,85,0.00,,,0.01,,2013-03-10 12:51:00,
2013-03-10 13:01:00,38.0,34.0,29.69,ENE,58,6.0,16.0,85,0.00,,,0.01,,2013-03-10 13:01:00,
2013-03-10 13:11:00,38.0,34.0,29.69,ENE,58,6.0,16.0,85,0.00,,,0.01,,2013-03-10 13:11:00,
2013-03-10 13:21:00,38.0,34.0,29.69,East,94,6.0,12.0,85,0.00,,,0.01,,2013-03-10 13:21:00,
2013-03-10 13:31:00,38.0,34.0,29.70,ENE,64,6.0,12.0,85,0.00,,,0.01,,2013-03-10 13:31:00,
2013-03-10 13:41:00,38.0,34.0,29.70,ENE,64,6.0,12.0,85,0.00,,,0.01,,2013-03-10 13:41:00,
2013-03-10 13:52:00,38.0,34.0,29.69,ENE,64,6.0,20.0,85,0.00,,,0.01,,2013-03-10 13:52:00,
2013-03-10 14:01:00,37.0,33.0,29.70,ENE,69,9.0,16.0,86,0.00,,,0.01,,2013-03-10 14:01:00,
2013-03-10 14:11:00,37.0,33.0,29.70,ENE,69,9.0,16.0,86,0.00,,,0.01,,2013-03-10 14:11:00,
2013-03-10 14:21:00,37.0,33.0,29.69,East,94,9.0,20.0,86,0.00,,,0.01,,2013-03-10 14:21:00,
2013-03-10 14:31:00,36.0,33.0,29.70,ENE,71,9.0,14.0,87,0.00,,,0.01,,2013-03-10 14:31:00,
2013-03-10 14:41:00,36.0,33.0,29.70,ENE,71,9.0,14.0,87,0.00,,,0.01,,2013-03-10 14:41:00,
2013-03-10 14:51:00,36.0,32.0,29.70,ESE,103,6.0,14.0,86,0.00,,,0.01,,2013-03-10 14:51:00,
2013-03-10 15:01:00,36.0,32.0,29.70,ESE,103,6.0,14.0,86,0.00,,,0.01,,2013-03-10 15:01:00,
2013-03-10 15:11:00,36.0,32.0,29.70,ESE,103,6.0,14.0,86,0.00,,,0.01,,2013-03-10 15:11:00,
2013-03-10 15:21:00,36.0,32.0,29.70,NE,41,6.0,12.0,86,0.00,,,0.01,,2013-03-10 15:21:00,
2013-03-10 15:31:00,36.0,33.0,29.71,ENE,73,6.0,20.0,87,0.00,,,0.01,,2013-03-10 15:31:00,
2013-03-10 15:42:00,36.0,33.0,29.71,ENE,73,6.0,20.0,87,0.00,,,0.01,,2013-03-10 15:42:00,
2013-03-10 15:51:00,36.0,33.0,29.70,ENE,71,6.0,28.0,87,0.00,,,0.01,,2013-03-10 15:51:00,
2013-03-10 16:01:00,36.0,33.0,29.70,ENE,71,6.0,28.0,87,0.00,,,0.01,,2013-03-10 16:01:00,
2013-03-10 16:11:00,36.0,33.0,29.70,ENE,71,6.0,28.0,87,0.00,,,0.01,,2013-03-10 16:11:00,
2013-03-10 16:21:00,35.0,32.0,29.70,East,93,9.0,22.0,87,0.00,,,0.01,,2013-03-10 16:21:00,
2013-03-10 16:32:00,35.0,32.0,29.71,East,83,6.0,12.0,87,0.00,,,0.01,,2013-03-10 16:32:00,
2013-03-10 16:42:00,35.0,32.0,29.71,East,83,6.0,12.0,87,0.00,,,0.01,,2013-03-10 16:42:00,
2013-03-10 16:52:00,35.0,31.0,29.71,East,95,6.0,22.0,85,0.00,,,0.01,,2013-03-10 16:52:00,
2013-03-10 17:01:00,35.0,31.0,29.71,East,81,6.0,14.0,85,0.00,,,0.01,,2013-03-10 17:01:00,
2013-03-10 17:11:00,35.0,31.0,29.71,East,81,6.0,14.0,85,0.00,,,0.01,,2013-03-10 17:11:00,
2013-03-10 17:21:00,35.0,31.0,29.71,East,81,6.0,14.0,85,0.00,,,0.01,,2013-03-10 17:21:00,
2013-03-10 17:31:00,35.0,31.0,29.72,ENE,58,6.0,10.0,85,0.00,,,0.01,,2013-03-10 17:31:00,
2013-03-10 17:41:00,35.0,31.0,29.72,ENE,58,6.0,10.0,85,0.00,,,0.01,,2013-03-10 17:41:00,
2013-03-10 17:51:00,35.0,31.0,29.72,ENE,77,6.0,12.0,85,0.00,,,0.01,,2013-03-10 17:51:00,
2013-03-10 18:01:00,35.0,31.0,29.72,ENE,63,6.0,14.0,86,0.00,,,0.01,,2013-03-10 18:01:00,
2013-03-10 18:11:00,35.0,31.0,29.72,ENE,63,6.0,14.0,86,0.00,,,0.01,,2013-03-10 18:11:00,
2013-03-10 18:21:00,35.0,31.0,29.72,East,80,6.0,18.0,85,0.00,,,0.01,,2013-03-10 18:21:00,
2013-03-10 18:31:00,34.0,30.0,29.72,East,80,6.0,14.0,85,0.00,,,0.01,,2013-03-10 18:31:00,
2013-03-10 18:41:00,34.0,30.0,29.72,East,80,6.0,14.0,85,0.00,,,0.01,,2013-03-10 18:41:00,
2013-03-10 18:52:00,34.0,30.0,29.72,ENE,63,6.0,14.0,84,0.00,,,0.01,,2013-03-10 18:52:00,
2013-03-10 19:01:00,34.0,30.0,29.73,NE,53,6.0,12.0,85,0.00,,,0.01,,2013-03-10 19:01:00,
2013-03-10 19:11:00,34.0,30.0,29.73,NE,53,6.0,12.0,85,0.00,,,0.01,,2013-03-10 19:11:00,
2013-03-10 19:21:00,34.0,30.0,29.73,NE,53,6.0,12.0,85,0.00,,,0.01,,2013-03-10 19:21:00,
2013-03-10 19:31:00,34.0,30.0,29.73,ENE,59,6.0,14.0,84,0.00,,,0.01,,2013-03-10 19:31:00,
2013-03-10 19:41:00,34.0,30.0,29.73,ENE,59,6.0,14.0,84,0.00,,,0.01,,2013-03-10 19:41:00,
2013-03-10 19:53:00,34.0,30.0,29.73,NE,51,6.0,18.0,85,0.00,,,0.01,,2013-03-10 19:53:00,
2013-03-10 20:02:00,33.0,29.0,29.72,NE,51,6.0,16.0,85,0.00,,,0.01,,2013-03-10 20:02:00,
2013-03-10 20:12:00,33.0,29.0,29.72,NE,51,6.0,16.0,85,0.00,,,0.01,,2013-03-10 20:12:00,
2013-03-10 20:22:00,33.0,29.0,29.72,NE,51,6.0,16.0,85,0.00,,,0.01,,2013-03-10 20:22:00,
2013-03-10 20:32:00,33.0,29.0,29.73,ENE,69,6.0,12.0,84,0.00,,,0.01,,2013-03-10 20:32:00,
2013-03-10 20:42:00,33.0,29.0,29.73,ENE,69,6.0,12.0,84,0.00,,,0.01,,2013-03-10 20:42:00,
2013-03-10 20:53:00,33.0,29.0,29.72,ENE,76,6.0,16.0,84,0.00,,,0.01,,2013-03-10 20:53:00,
2013-03-10 21:02:00,33.0,29.0,29.73,NE,41,6.0,14.0,85,0.00,,,0.01,,2013-03-10 21:02:00,
2013-03-10 21:12:00,33.0,29.0,29.73,NE,41,6.0,14.0,85,0.00,,,0.01,,2013-03-10 21:12:00,
2013-03-10 21:22:00,33.0,29.0,29.73,NE,41,6.0,14.0,85,0.00,,,0.01,,2013-03-10 21:22:00,
2013-03-10 21:32:00,33.0,29.0,29.73,ENE,62,6.0,12.0,86,0.00,,,0.01,,2013-03-10 21:32:00,
2013-03-10 21:42:00,33.0,29.0,29.73,ENE,62,6.0,12.0,86,0.00,,,0.01,,2013-03-10 21:42:00,
2013-03-10 21:52:00,32.0,28.0,29.73,NE,55,6.0,16.0,86,0.00,,,0.01,,2013-03-10 21:52:00,
2013-03-10 22:02:00,32.0,28.0,29.73,ENE,75,6.0,14.0,86,0.00,,,0.01,,2013-03-10 22:02:00,
2013-03-10 22:11:00,32.0,28.0,29.73,ENE,75,6.0,14.0,86,0.00,,,0.01,,2013-03-10 22:11:00,
2013-03-10 22:21:00,33.0,29.0,29.73,East,86,6.0,16.0,86,0.00,,,0.01,,2013-03-10 22:21:00,
2013-03-10 22:32:00,33.0,29.0,29.73,ENE,64,3.0,12.0,86,0.00,,,0.01,,2013-03-10 22:32:00,
2013-03-10 22:42:00,33.0,29.0,29.73,ENE,64,3.0,12.0,86,0.00,,,0.01,,2013-03-10 22:42:00,
2013-03-10 22:52:00,33.0,29.0,29.73,ENE,66,6.0,16.0,86,0.00,,,0.01,,2013-03-10 22:52:00,
2013-03-10 23:02:00,33.0,29.0,29.73,East,89,6.0,16.0,86,0.00,,,0.01,,2013-03-10 23:02:00,
2013-03-10 23:11:00,33.0,29.0,29.73,ENE,57,6.0,16.0,86,0.00,,,0.01,,2013-03-10 23:11:00,
2013-03-10 23:22:00,33.0,29.0,29.73,ENE,57,6.0,16.0,86,0.00,,,0.01,,2013-03-10 23:22:00,
2013-03-10 23:32:00,33.0,29.0,29.73,ENE,75,6.0,18.0,86,0.00,,,0.01,,2013-03-10 23:32:00,
2013-03-10 23:42:00,33.0,29.0,29.73,ENE,75,6.0,18.0,86,0.00,,,0.01,,2013-03-10 23:42:00,
2013-03-10 23:52:00,33.0,29.0,29.73,ENE,70,6.0,12.0,86,0.00,,,0.01,,2013-03-10 23:52:00,